[[{"header":{"parameterUnit":"m.s-1","parameterCategory":1,"la1":30.2991,"la2":30.254,"lo1":-89.0895,"lo2":-89.0444,"dy":0.0017,"dx":0.0017,"nx":28,"ny":28,"refTime":"2023-09-12T03:00:00:Z","depth":0,"parameterNumber":2,"parameterNumberName":"U-component_of_WINDS"},"data":[0,0,0,0,0,0,0,0,0,0,0,0,0,0,0,0,0,0,0,0,0,0,0,0,0,0,0,0,0,0,0,0,0,0,0,0,0,0,0,0,0,0,0,0,0,0,0,0,0,0,0,0,0,0,0,0,0,0,-0.7857,-0.7858,0,-0.7977,-0.7978,-0.798,-0.801,-0.8009,-0.8008,-0.8007,-0.8134,-0.8138,-0.8142,0,0,0,0,0,0,0,0,0,0,0,0,0,-0.7659,-0.7662,-0.7857,-0.7859,-0.786,-0.7977,-0.7979,-0.798,-0.801,-0.8009,-0.8008,-0.8007,-0.8132,-0.8137,-0.8142,0,0,0,0,0,0,0,0,0,0,0,0,0,-0.7759,-0.7664,-0.7857,-0.7889,-0.7893,-0.7977,-0.7979,-0.7981,-0.801,-0.8009,-0.8008,-0.8006,-0.8131,-0.8137,-0.8143,-0.8204,0,0,-0.8161,-0.8164,0,0,0,0,0,0,0,0,-0.7753,-0.7766,-0.7883,-0.7887,-0.7891,-0.7977,-0.7955,-0.8056,-0.801,-0.7966,-0.8007,-0.8006,-0.8083,-0.8093,-0.8118,-0.821,-0.8215,-0.8162,-0.8166,-0.8168,-0.817,0,0,0,0,0,0,0,-0.7746,-0.7761,-0.7905,-0.7884,-0.789,-0.7899,-0.7912,-0.7974,-0.8029,-0.7969,-0.7972,-0.7985,-0.8085,-0.8112,-0.8121,-0.8217,-0.8162,-0.8167,-0.8171,-0.8173,-0.837,-0.8371,0,0,0,0,0,0,-0.7733,-0.7755,-0.7901,-0.7908,-0.7818,-0.7903,-0.7918,-0.7951,-0.8029,-0.8039,-0.7986,-0.7986,-0.8102,-0.8114,-0.8126,-0.8205,-0.8168,-0.8174,-0.8178,-0.8368,-0.837,-0.8372,0,0,0,0,0,0,-0.7729,-0.7746,-0.7896,-0.7832,-0.7852,-0.7908,-0.7945,-0.7954,-0.7981,-0.8041,-0.8052,-0.8003,-0.8102,-0.8117,-0.8185,-0.821,-0.8177,-0.8182,-0.8367,-0.8369,-0.8371,-0.8362,0,0,0,0,0,0,-0.7723,-0.7744,-0.7766,-0.7833,-0.7855,-0.7951,-0.7946,-0.7957,-0.7991,-0.7992,-0.806,-0.8071,-0.8102,-0.8176,-0.8191,-0.8218,-0.8187,-0.8365,-0.8368,-0.837,-0.8361,-0.8364,-0.8367,0,0,0,0,0,-0.7716,-0.7759,-0.7767,-0.7785,-0.7884,-0.7953,-0.7966,-0.8,-0.7993,-0.8017,-0.8056,-0.8068,-0.8204,-0.8182,-0.82,-0.8229,-0.8363,-0.8367,-0.837,-0.8359,-0.8363,-0.8367,0,0,0,0,0,0,-0.7694,-0.7768,-0.7778,-0.7844,-0.7892,-0.7958,-0.7989,-0.8003,-0.8055,-0.8054,-0.8095,-0.811,-0.8176,-0.8209,-0.8183,-0.8294,-0.8284,-0.8291,-0.827,-0.8274,-0.8277,-0.8268,-0.8192,0,0,0,0,0,-0.7697,-0.7745,-0.7808,-0.786,-0.7884,-0.7932,-0.7963,-0.7985,-0.8037,-0.8058,-0.8102,-0.8153,-0.8208,-0.8243,-0.8296,-0.8366,-0.8383,-0.8395,-0.8398,-0.84,-0.8406,-0.8449,-0.8455,-0.8383,-0.8383,-0.8383,0,0,-0.7704,-0.775,-0.7778,-0.7857,-0.7897,-0.7948,-0.7949,-0.8002,-0.804,-0.8066,-0.8133,-0.8168,-0.8228,-0.8298,-0.8331,-0.8327,-0.843,-0.8404,-0.8406,-0.8411,-0.8453,-0.846,-0.8466,-0.8386,-0.8385,-0.8385,0,0,-0.7742,-0.7781,-0.783,-0.787,-0.7931,-0.7963,-0.7975,-0.8039,-0.8063,-0.8131,-0.8152,-0.82,-0.8292,-0.8335,-0.8369,-0.8427,-0.8441,-0.8443,-0.846,-0.8501,-0.8507,-0.8512,-0.8535,-0.8542,-0.8449,-0.8449,-0.8449,0,-0.7743,-0.7819,-0.7854,-0.7907,-0.7942,-0.7967,-0.8019,-0.8057,-0.8132,-0.8156,-0.8151,-0.827,-0.8312,-0.8394,-0.8408,-0.8434,-0.8451,-0.8436,-0.8503,-0.8508,-0.8514,-0.8536,-0.8545,-0.8449,-0.8449,-0.8449,-0.8449,0,-0.7818,-0.7871,-0.7904,-0.7975,-0.8014,-0.8066,-0.8111,-0.8147,-0.8167,-0.82,-0.8271,-0.8323,-0.8388,-0.841,-0.8429,-0.8495,-0.8492,-0.8494,-0.8485,-0.852,-0.8542,-0.8551,-0.8449,-0.8449,-0.8449,-0.8449,0,0,-0.7845,-0.7937,-0.7949,-0.7983,-0.8052,-0.8095,-0.8149,-0.8213,-0.8244,-0.8295,-0.8344,-0.8423,-0.8427,-0.8465,-0.849,-0.8526,-0.8572,-0.8525,-0.8527,-0.8534,-0.8651,-0.865,-0.8659,-0.8582,-0.8584,-0.8585,-0.8647,0,-0.7893,-0.7989,-0.8024,-0.8104,-0.8155,-0.8182,-0.823,-0.8279,-0.8313,-0.8362,-0.84,-0.8456,-0.8456,-0.848,-0.8516,-0.8558,-0.8596,-0.8554,-0.863,-0.8632,-0.8614,-0.867,-0.8668,-0.8723,-0.8655,-0.8657,-0.8658,0,-0.7961,-0.8014,-0.8099,-0.8165,-0.8188,-0.823,-0.8293,-0.8339,-0.8397,-0.8419,-0.8464,-0.8487,-0.8548,-0.8535,-0.8621,-0.8592,-0.8625,-0.8651,-0.8654,-0.8663,-0.8647,-0.8682,-0.8742,-0.8751,-0.8671,-0.867,-0.8669,0,-0.7975,-0.8067,-0.813,-0.8159,-0.8237,-0.8266,-0.8301,-0.8357,-0.8394,-0.845,-0.8475,-0.8537,-0.8572,-0.8621,-0.8661,-0.8648,-0.8745,-0.8735,-0.8768,-0.8767,-0.8787,-0.8785,-0.8854,-0.8806,-0.8806,-0.8806,-0.8806,0,-0.8025,-0.8077,-0.8138,-0.8177,-0.8237,-0.8277,-0.8336,-0.8372,-0.8423,-0.8472,-0.8499,-0.8544,-0.8595,-0.8648,-0.8681,-0.8749,-0.8764,-0.8785,-0.8794,-0.8784,-0.8781,-0.8806,-0.8804,-0.8808,-0.8808,-0.8807,-0.8807,0,-0.805,-0.8092,-0.8164,-0.8232,-0.8251,-0.8292,-0.8352,-0.8393,-0.8429,-0.849,-0.8507,-0.8564,-0.8628,-0.8674,-0.8756,-0.8779,-0.8853,-0.886,-0.8833,-0.8837,-0.8868,-0.8865,-0.8957,-0.8972,-0.8912,-0.8912,-0.8913,0,-0.8079,-0.812,-0.8193,-0.8227,-0.8261,-0.8316,-0.8354,-0.8397,-0.8436,-0.8507,-0.854,-0.8605,-0.866,-0.8762,-0.8812,-0.8877,-0.8887,-0.8915,-0.8897,-0.8887,-0.889,-0.8887,-0.8893,-0.8918,-0.8918,-0.8918,-0.8919,0,-0.8128,-0.8148,-0.8201,-0.8263,-0.8308,-0.8359,-0.841,-0.8437,-0.849,-0.8533,-0.8598,-0.8641,-0.8726,-0.8793,-0.8862,-0.89,-0.892,-0.8924,-0.8935,-0.8926,-0.8909,-0.8921,-0.8842,-0.8922,-0.8921,-0.8921,-0.8921,-0.8921,-0.8158,-0.8196,-0.8254,-0.8314,-0.8357,-0.8405,-0.8447,-0.8489,-0.8544,-0.8616,-0.8638,-0.8707,-0.8768,-0.8863,-0.8903,-0.8959,-0.8958,-0.8974,-0.8978,-0.8982,-0.8982,-0.8899,-0.8972,-0.8972,-0.8972,-0.8972,-0.8972,0,-0.8209,-0.8249,-0.8303,-0.8374,-0.8422,-0.8435,-0.8493,-0.8533,-0.8593,-0.8647,-0.8701,-0.8778,-0.8844,-0.89,-0.8968,-0.9003,-0.9014,-0.9019,-0.9018,-0.9027,-0.8978,-0.8963,-0.901,-0.901,-0.901,-0.901,-0.901,-0.901,-0.8242,-0.8308,-0.8335,-0.8425,-0.8464,-0.8531,-0.8564,-0.861,-0.8653,-0.8738,-0.8792,-0.8828,-0.8885,-0.8958,-0.9019,-0.9034,-0.9059,-0.9063,-0.9081,-0.9034,-0.903,-0.9026,-0.9011,-0.9068,-0.9068,-0.9125,-0.9126,-0.9126]},{"header":{"parameterUnit":"m.s-1","parameterCategory":1,"la1":30.2991,"la2":30.254,"lo1":-89.0895,"lo2":-89.0444,"dy":0.0017,"dx":0.0017,"nx":28,"ny":28,"refTime":"2023-09-12T03:00:00:Z","depth":0,"parameterNumber":3,"parameterNumberName":"V-component_of_WINDS"},"data":[0,0,0,0,0,0,0,0,0,0,0,0,0,0,0,0,0,0,0,0,0,0,0,0,0,0,0,0,0,0,0,0,0,0,0,0,0,0,0,0,0,0,0,0,0,0,0,0,0,0,0,0,0,0,0,0,0,0,2.6694,2.6694,0,2.675,2.6751,2.6752,2.6798,2.6798,2.6799,2.6799,2.6853,2.6854,2.6855,0,0,0,0,0,0,0,0,0,0,0,0,0,2.6621,2.6622,2.6694,2.6694,2.6695,2.675,2.6751,2.6752,2.6798,2.6798,2.6799,2.68,2.6853,2.6854,2.6855,0,0,0,0,0,0,0,0,0,0,0,0,0,2.6662,2.6622,2.6694,2.6725,2.6728,2.675,2.6751,2.6752,2.6798,2.6799,2.6799,2.68,2.6853,2.6854,2.6855,2.685,0,0,2.686,2.6861,0,0,0,0,0,0,0,0,2.666,2.6665,2.672,2.6723,2.6727,2.6768,2.6745,2.6785,2.6798,2.6771,2.6799,2.68,2.6824,2.6828,2.6837,2.6852,2.6854,2.686,2.6861,2.6862,2.6862,0,0,0,0,0,0,0,2.6657,2.6662,2.6716,2.672,2.6725,2.6734,2.6741,2.6753,2.6793,2.6774,2.6777,2.6783,2.6826,2.6835,2.6838,2.6855,2.686,2.6861,2.6862,2.6863,2.6866,2.6865,0,0,0,0,0,0,2.665,2.666,2.6714,2.6718,2.6694,2.6735,2.6743,2.6754,2.6793,2.6799,2.6783,2.6785,2.6832,2.6837,2.684,2.6834,2.6862,2.6863,2.6864,2.6867,2.6866,2.6865,0,0,0,0,0,0,2.6648,2.6654,2.6712,2.669,2.6698,2.6736,2.6748,2.6755,2.6764,2.68,2.6806,2.6785,2.6833,2.6838,2.6847,2.6837,2.6864,2.6865,2.6868,2.6867,2.6865,2.6823,0,0,0,0,0,0,2.6646,2.6653,2.6653,2.6689,2.6699,2.6719,2.6747,2.6755,2.6767,2.6771,2.6804,2.681,2.6834,2.6844,2.6848,2.684,2.6866,2.6869,2.6867,2.6866,2.6826,2.6821,2.6817,0,0,0,0,0,2.6643,2.6638,2.6652,2.6659,2.6699,2.6718,2.6723,2.6753,2.6766,2.6764,2.6787,2.6809,2.6838,2.6845,2.6849,2.6841,2.6869,2.6868,2.6866,2.6828,2.6822,2.6817,0,0,0,0,0,0,2.6598,2.6644,2.666,2.6667,2.6689,2.6726,2.6725,2.6746,2.6763,2.6766,2.68,2.6807,2.6811,2.6827,2.6834,2.6836,2.6856,2.6855,2.6826,2.682,2.6816,2.6811,2.6867,0,0,0,0,0,2.659,2.6603,2.6641,2.6644,2.6653,2.6687,2.6697,2.6717,2.674,2.6749,2.6773,2.6793,2.6806,2.6814,2.6829,2.6829,2.6835,2.6825,2.682,2.6817,2.6815,2.6814,2.6809,2.6859,2.6859,2.6859,0,0,2.6571,2.6597,2.6603,2.6635,2.6654,2.6665,2.6695,2.6705,2.6713,2.675,2.676,2.6777,2.6802,2.6805,2.6808,2.6819,2.6803,2.6814,2.6811,2.6811,2.6811,2.6807,2.6802,2.6858,2.6858,2.6858,0,0,2.6543,2.6565,2.6569,2.6587,2.6616,2.6638,2.6639,2.6673,2.6686,2.6696,2.6724,2.6733,2.6756,2.6772,2.6783,2.6759,2.6778,2.6762,2.6738,2.6737,2.6733,2.6729,2.6719,2.6715,2.6761,2.6761,2.6761,0,2.6516,2.6535,2.6568,2.6577,2.6589,2.6624,2.6626,2.6642,2.6673,2.668,2.6692,2.6721,2.674,2.6747,2.6741,2.6749,2.6749,2.6758,2.6731,2.6728,2.6725,2.6716,2.6712,2.6759,2.6759,2.6759,2.6759,0,2.6499,2.6512,2.6511,2.6541,2.6553,2.6559,2.6591,2.6599,2.6618,2.6638,2.6647,2.6671,2.669,2.6693,2.6712,2.6702,2.6708,2.6725,2.6745,2.6718,2.6709,2.6706,2.6755,2.6756,2.6757,2.6757,0,0,2.6445,2.6492,2.6491,2.6504,2.6538,2.6547,2.6553,2.6573,2.6578,2.6598,2.6603,2.6621,2.6637,2.6649,2.667,2.6669,2.6646,2.6686,2.6687,2.6676,2.6634,2.6619,2.6614,2.6659,2.6659,2.6658,2.6631,0,2.6421,2.6435,2.6464,2.6469,2.6479,2.6512,2.6517,2.6537,2.6556,2.6566,2.6587,2.6598,2.6619,2.6627,2.6627,2.6648,2.6637,2.6651,2.6662,2.6662,2.6653,2.661,2.6596,2.6569,2.6628,2.6627,2.6627,0,2.6395,2.6413,2.6419,2.645,2.6455,2.6459,2.6478,2.6489,2.6511,2.6525,2.6538,2.6561,2.6567,2.6587,2.6595,2.6603,2.6609,2.662,2.662,2.6621,2.6642,2.6608,2.6561,2.6556,2.6622,2.6623,2.6623,0,2.6352,2.6378,2.6384,2.6395,2.6431,2.6433,2.6448,2.6472,2.6481,2.6497,2.6503,2.652,2.6529,2.654,2.6566,2.6578,2.657,2.6593,2.658,2.6579,2.6576,2.6575,2.6527,2.6582,2.6582,2.6582,2.6583,0,2.6321,2.6323,2.6365,2.6369,2.6371,2.6403,2.6404,2.6422,2.6442,2.6448,2.6478,2.6483,2.6518,2.6526,2.6546,2.6548,2.6553,2.6562,2.6567,2.6559,2.6557,2.6562,2.6564,2.6581,2.6582,2.6582,2.6582,0,2.6274,2.6303,2.6311,2.6345,2.6353,2.6353,2.6381,2.6385,2.6406,2.6413,2.6416,2.6448,2.6459,2.6487,2.6505,2.6519,2.6515,2.6525,2.6507,2.651,2.6495,2.6496,2.6447,2.6441,2.6502,2.6501,2.6501,0,2.6251,2.6253,2.6287,2.6294,2.6308,2.6319,2.6328,2.6359,2.6368,2.6393,2.6393,2.6407,2.6419,2.6435,2.6459,2.6473,2.6483,2.6465,2.6485,2.6476,2.648,2.6479,2.6478,2.646,2.6459,2.6458,2.6458,0,2.6208,2.6222,2.6235,2.6253,2.6263,2.6279,2.6295,2.6299,2.6334,2.6341,2.6354,2.6363,2.6382,2.6395,2.6412,2.6426,2.6447,2.6451,2.6449,2.6439,2.6428,2.6432,2.6493,2.6452,2.6453,2.6453,2.6453,2.6454,2.6171,2.6173,2.6197,2.621,2.6226,2.6241,2.6245,2.6266,2.6277,2.6296,2.6313,2.6323,2.6344,2.6369,2.6381,2.6388,2.6399,2.6396,2.6395,2.6393,2.6389,2.6428,2.6392,2.6392,2.6392,2.6393,2.6393,0,2.6127,2.6144,2.6156,2.6178,2.6188,2.6208,2.6227,2.6233,2.6242,2.626,2.6272,2.6285,2.6297,2.6321,2.6335,2.6336,2.6345,2.6338,2.6337,2.634,2.6379,2.6379,2.633,2.633,2.633,2.633,2.633,2.633,2.6106,2.611,2.6126,2.6138,2.6155,2.6165,2.6174,2.6187,2.6201,2.6214,2.6225,2.6241,2.6261,2.6276,2.6287,2.6294,2.6297,2.6286,2.6295,2.6331,2.6337,2.6343,2.6343,2.6287,2.6287,2.6255,2.6255,2.6255]}]]